Location: Arroyo Retuerta
(40.5469°N, 4.3534°W)
Time: 12:21:47
(UTC+00:00)

NOSS 3-2 (A) - Pass Details

Date: 01 June 2020
Orbit: 801 x 1406 km, 63.4° (Epoch: 02 June)

Event Time Altitude Azimuth Distance (km) Brightness Sun altitude
Rises 22:00:31 0° 327° (NNW) 3,993 8.3 -19.8°
Reaches altitude 10° 22:03:07 10° 330° (NNW) 3,111 7.3 -20.1°
Maximum altitude 22:10:44 69° 53° (NE) 1,383 4.2 -20.9°
Enters shadow 22:15:11 31° 128° (SE) 2,188 4.8 -21.3°
